Total_Precipitation_Accumulation
1.55 1.70 1.58 1.40 1.36 1.32 1.56 1.88 2.05 1.83 1.61 1.46 1.39 1.39 1.43 1.47 1.68 1.58 1.60 1.58 1.42 1.28 1.16 1.09 1.07 1.04 1.04 1.11 1.19 1.22 1.26 1.37 1.57 1.79 2.02 2.31 2.61 2.91
1.73 1.73 1.62 1.48 1.55 1.40 1.46 1.74 1.96 2.09 1.86 1.39 1.42 1.42 1.52 1.40 1.61 1.53 1.59 1.60 1.41 1.28 1.17 1.10 1.04 1.01 1.00 1.02 1.07 1.15 1.19 1.19 1.25 1.36 1.48 1.60 1.73 1.93
1.92 1.83 1.75 1.75 1.74 1.60 1.62 1.72 1.80 2.02 1.94 1.55 1.50 1.64 1.74 1.64 1.69 1.67 1.58 1.59 1.44 1.36 1.18 1.09 1.04 1.00 1.01 1.00 1.00 1.00 1.05 1.07 1.10 1.15 1.23 1.28 1.30 1.34
2.26 2.31 2.09 2.01 1.97 1.82 1.79 1.76 1.80 1.97 1.99 1.85 1.75 1.82 1.85 1.79 1.76 1.59 1.37 1.28 1.31 1.42 1.32 1.18 1.10 1.03 0.98 0.97 0.97 0.96 0.96 0.98 1.03 1.04 1.08 1.12 1.16 1.17
2.10 2.28 2.28 2.38 2.14 2.08 1.99 1.90 1.86 1.84 1.99 1.91 1.77 1.96 1.98 1.96 1.86 1.52 1.38 1.39 1.25 1.43 1.41 1.21 1.08 1.03 0.97 0.92 0.90 0.90 0.90 0.92 0.95 0.97 0.98 0.96 0.98 1.00
1.87 1.93 2.07 2.32 2.30 2.29 2.15 2.13 2.14 2.12 2.19 2.11 2.01 2.11 2.29 2.32 2.15 1.77 1.61 1.53 1.40 1.25 1.34 1.22 1.14 1.08 1.00 0.94 0.90 0.87 0.86 0.87 0.89 0.90 0.92 0.93 0.91 0.89
1.91 1.85 1.83 2.07 2.16 2.17 1.96 2.02 2.19 2.24 2.27 2.24 2.21 2.28 2.33 2.45 2.17 1.92 1.75 1.70 1.61 1.43 1.35 1.18 1.14 1.08 1.09 1.10 1.05 0.97 0.90 0.88 0.90 0.91 0.91 0.91 0.91 0.94
2.14 2.07 1.96 1.92 1.91 1.94 1.97 2.01 2.08 2.08 2.12 2.16 2.13 2.17 2.23 2.34 2.45 2.27 2.02 1.85 1.67 1.49 1.51 1.34 1.26 1.20 1.09 1.01 1.12 1.09 1.00 0.92 0.89 0.90 0.92 0.94 0.94 0.91
2.09 2.07 1.87 1.74 1.88 1.82 1.98 2.00 1.87 1.81 1.79 1.88 1.91 1.94 2.32 2.58 2.81 2.52 2.27 2.06 1.81 1.67 1.63 1.41 1.30 1.21 1.08 1.04 1.15 1.02 0.95 0.90 0.86 0.85 0.86 0.87 0.89 0.90
1.78 1.87 1.84 1.76 1.77 1.84 1.79 1.60 1.48 1.47 1.50 1.43 1.47 1.68 2.05 2.53 2.78 2.78 2.72 2.47 2.18 1.82 1.61 1.40 1.18 1.11 1.05 1.04 1.15 1.09 0.99 0.91 0.87 0.83 0.78 0.77 0.81 0.85
1.61 1.60 1.60 1.50 1.59 1.64 1.55 1.39 1.28 1.25 1.30 1.31 1.30 1.45 1.71 2.04 2.41 2.57 2.48 2.28 1.93 1.56 1.40 1.28 1.13 1.14 1.10 1.02 1.04 1.19 1.11 1.03 0.97 0.91 0.88 0.85 0.85 0.91
1.67 1.67 1.72 1.53 1.43 1.33 1.26 1.27 1.14 1.06 1.15 1.14 1.13 1.19 1.30 1.56 1.97 2.06 2.05 2.06 1.84 1.57 1.29 1.27 1.18 1.29 1.22 1.03 0.97 1.03 1.08 1.14 1.13 1.08 1.03 1.02 1.06 0.95
1.41 1.37 1.45 1.47 1.27 1.10 1.09 1.07 1.01 1.01 1.06 1.02 0.97 0.98 1.10 1.25 1.43 1.72 1.85 1.81 1.70 1.43 1.25 1.35 1.24 1.25 1.24 1.05 0.95 0.94 0.97 0.99 1.04 1.12 1.18 1.17 1.17 1.08
1.39 1.41 1.49 1.53 1.28 1.11 0.96 0.88 0.89 0.85 0.86 0.93 0.91 0.88 0.94 1.05 1.27 1.54 1.81 1.85 1.72 1.58 1.55 1.57 1.44 1.36 1.31 1.16 1.01 0.93 0.96 1.01 1.05 1.08 1.13 1.32 1.30 1.28
1.39 1.67 1.68 1.63 1.42 1.15 1.05 1.03 0.94 0.82 0.85 0.90 0.89 0.86 0.89 1.02 1.28 1.57 1.80 1.97 1.91 1.74 1.65 1.57 1.52 1.51 1.52 1.31 1.12 1.06 1.08 1.06 1.02 1.02 1.06 1.11 1.15 1.23
1.39 1.62 1.74 1.74 1.63 1.45 1.35 1.25 1.04 0.96 1.01 1.01 1.03 1.08 1.15 1.27 1.43 1.56 1.73 1.87 1.93 1.77 1.67 1.63 1.61 1.68 1.64 1.48 1.35 1.21 1.12 1.10 1.08 1.12 1.17 1.18 1.17 1.14
1.46 1.68 1.81 1.91 1.92 1.85 1.72 1.61 1.48 1.33 1.21 1.17 1.21 1.20 1.24 1.33 1.39 1.54 1.74 1.82 1.75 1.55 1.52 1.60 1.68 1.76 1.76 1.67 1.43 1.15 1.07 1.03 1.01 1.14 1.23 1.20 1.12 1.06
1.40 1.54 1.76 1.93 2.00 2.08 2.09 1.98 1.77 1.58 1.45 1.42 1.39 1.35 1.36 1.36 1.41 1.57 1.77 1.87 1.74 1.58 1.50 1.50 1.67 1.80 1.79 1.63 1.38 1.17 1.05 1.00 0.99 1.09 1.16 1.16 1.03 0.95
1.26 1.38 1.48 1.58 1.75 1.96 2.06 2.03 1.83 1.70 1.71 1.67 1.59 1.56 1.58 1.60 1.60 1.70 1.87 1.97 1.91 1.77 1.68 1.68 1.76 1.79 1.66 1.33 1.09 1.03 1.06 1.01 1.05 1.07 1.07 1.06 0.99 0.94
1.03 1.18 1.32 1.46 1.61 1.85 2.00 2.03 1.98 1.89 1.89 1.92 1.88 1.82 1.82 1.78 1.71 1.68 1.80 1.88 1.90 1.88 1.83 1.75 1.65 1.64 1.61 1.45 1.30 1.14 1.09 1.16 1.18 1.19 1.15 1.16 1.14 1.18
1.00 1.05 1.11 1.26 1.44 1.67 1.91 2.06 2.07 1.97 1.89 1.95 1.94 1.86 1.86 1.87 1.76 1.67 1.72 1.88 1.94 1.92 1.77 1.57 1.49 1.69 1.87 1.99 1.75 1.36 1.22 1.25 1.33 1.33 1.35 1.44 1.36 1.30
1.12 1.13 1.20 1.32 1.47 1.69 1.89 1.98 2.00 1.98 1.92 1.93 1.91 1.84 1.82 1.80 1.67 1.60 1.62 1.69 1.72 1.76 1.74 1.74 1.91 2.05 2.06 2.00 1.71 1.43 1.36 1.40 1.50 1.57 1.51 1.43 1.34 1.24
1.21 1.19 1.23 1.32 1.50 1.71 1.85 1.95 1.96 1.97 1.96 1.94 1.90 1.83 1.80 1.80 1.75 1.70 1.67 1.69 1.71 1.75 1.90 1.97 1.98 2.05 1.99 1.93 1.86 1.73 1.63 1.60 1.62 1.60 1.46 1.34 1.23 1.15